When you browse on this site, cookies collect data to enhance your experience and personalize the content and advertising you see.
Visit our Privacy Policy to learn more. By continuing to use the site, you agree to this use of cookies and data.
  • en France
  • Liste des pays
  • À 7 jours
  • Température de l'eau
  • Carte météo
  • Widgets météo
  • user-avatar
    Se connecter

    Météo par heure à Kotonu

    Ce jour, 7 Décembre, Samedi

    Heure Température Précipitation Vent Pression Humidité
    00:00 +29°C° 0 mm 3 m/s 757 mmHg 77%
    01:00 +29°C° 0.1 mm 3 m/s 757 mmHg 78%
    02:00 +28°C° 0.1 mm 3 m/s 756 mmHg 79%
    03:00 +28°C° 0.1 mm 3 m/s 756 mmHg 80%
    04:00 +28°C° 0.6 mm 3 m/s 756 mmHg 81%
    05:00 +27°C° 0.6 mm 2 m/s 757 mmHg 82%
    06:00 +27°C° 0 mm 2 m/s 757 mmHg 84%
    07:00 +29°C° 0 mm 2 m/s 757 mmHg 76%
    08:00 +31°C° 0 mm 2 m/s 757 mmHg 68%
    09:00 +34°C° 0 mm 2 m/s 758 mmHg 60%
    10:00 +35°C° 0 mm 2 m/s 757 mmHg 54%
    11:00 +36°C° 0 mm 2 m/s 757 mmHg 48%
    12:00 +37°C° 0 mm 2 m/s 756 mmHg 42%
    13:00 +36°C° 0 mm 3 m/s 755 mmHg 47%
    14:00 +35°C° 0 mm 4 m/s 755 mmHg 52%
    15:00 +34°C° 0 mm 4 m/s 754 mmHg 57%
    16:00 +33°C° 0 mm 5 m/s 755 mmHg 63%
    17:00 +32°C° 0 mm 5 m/s 755 mmHg 68%
    18:00 +30°C° 0 mm 5 m/s 756 mmHg 73%
    19:00 +30°C° 0 mm 5 m/s 756 mmHg 74%
    20:00 +30°C° 0 mm 5 m/s 757 mmHg 76%
    21:00 +30°C° 0 mm 5 m/s 757 mmHg 77%
    22:00 +29°C° 0 mm 4 m/s 757 mmHg 78%
    23:00 +29°C° 0 mm 4 m/s 757 mmHg 80%

    Demain, 8 Décembre, Dimanche

    Heure Température Précipitation Vent Pression Humidité
    00:00 +29°C° 0 mm 4 m/s 757 mmHg 82%
    01:00 +29°C° 0 mm 3 m/s 756 mmHg 83%
    02:00 +28°C° 0 mm 3 m/s 756 mmHg 84%
    03:00 +28°C° 0 mm 3 m/s 756 mmHg 85%
    04:00 +28°C° 0 mm 2 m/s 756 mmHg 86%
    05:00 +28°C° 0 mm 2 m/s 757 mmHg 86%
    06:00 +28°C° 0 mm 2 m/s 757 mmHg 86%
    07:00 +29°C° 0 mm 2 m/s 757 mmHg 77%
    08:00 +31°C° 0 mm 2 m/s 758 mmHg 69%
    09:00 +34°C° 0 mm 2 m/s 758 mmHg 60%
    10:00 +35°C° 0 mm 2 m/s 758 mmHg 56%
    11:00 +36°C° 0 mm 2 m/s 757 mmHg 52%
    12:00 +37°C° 0 mm 2 m/s 757 mmHg 48%
    13:00 +36°C° 0.1 mm 3 m/s 756 mmHg 52%
    14:00 +35°C° 0.1 mm 4 m/s 756 mmHg 57%
    15:00 +33°C° 0.1 mm 4 m/s 755 mmHg 61%
    16:00 +33°C° 0.2 mm 5 m/s 755 mmHg 66%
    17:00 +32°C° 0.2 mm 5 m/s 756 mmHg 70%
    18:00 +30°C° 0.2 mm 5 m/s 756 mmHg 75%
    19:00 +30°C° 0 mm 5 m/s 756 mmHg 76%
    20:00 +29°C° 0 mm 5 m/s 757 mmHg 77%
    21:00 +29°C° 0 mm 5 m/s 757 mmHg 78%
    22:00 +29°C° 0 mm 5 m/s 757 mmHg 79%
    23:00 +29°C° 0 mm 5 m/s 757 mmHg 80%

    Après-demain, 9 Décembre, Lundi

    Heure Température Précipitation Vent Pression Humidité
    00:00 +29°C° 0 mm 5 m/s 757 mmHg 82%
    01:00 +28°C° 0 mm 5 m/s 757 mmHg 83%
    02:00 +28°C° 0 mm 4 m/s 756 mmHg 85%
    03:00 +28°C° 0 mm 3 m/s 756 mmHg 86%
    04:00 +28°C° 0 mm 3 m/s 756 mmHg 87%
    05:00 +28°C° 0 mm 3 m/s 757 mmHg 87%
    06:00 +28°C° 0 mm 3 m/s 757 mmHg 87%
    07:00 +29°C° 0 mm 3 m/s 758 mmHg 79%
    08:00 +31°C° 0 mm 3 m/s 758 mmHg 72%
    09:00 +33°C° 0 mm 3 m/s 758 mmHg 65%
    10:00 +34°C° 0 mm 3 m/s 758 mmHg 62%
    11:00 +34°C° 0 mm 3 m/s 757 mmHg 59%
    12:00 +35°C° 0 mm 4 m/s 757 mmHg 57%
    13:00 +34°C° 0 mm 4 m/s 756 mmHg 57%
    14:00 +34°C° 0 mm 4 m/s 756 mmHg 58%
    15:00 +34°C° 0 mm 4 m/s 755 mmHg 59%
    16:00 +33°C° 0 mm 4 m/s 755 mmHg 64%
    17:00 +32°C° 0 mm 4 m/s 756 mmHg 70%
    18:00 +30°C° 0 mm 4 m/s 756 mmHg 76%
    19:00 +29°C° 0 mm 4 m/s 756 mmHg 77%
    20:00 +29°C° 0 mm 5 m/s 757 mmHg 78%
    21:00 +29°C° 0 mm 5 m/s 757 mmHg 80%
    22:00 +29°C° 0 mm 5 m/s 757 mmHg 80%
    23:00 +29°C° 0 mm 5 m/s 757 mmHg 81%

    10 Décembre, Mardi

    Heure Température Précipitation Vent Pression Humidité
    00:00 +29°C° 0 mm 5 m/s 757 mmHg 82%
    01:00 +28°C° 0 mm 5 m/s 757 mmHg 84%
    02:00 +28°C° 0 mm 4 m/s 756 mmHg 85%
    03:00 +28°C° 0 mm 4 m/s 756 mmHg 87%
    04:00 +28°C° 0.3 mm 4 m/s 756 mmHg 87%
    05:00 +27°C° 0.3 mm 4 m/s 757 mmHg 87%
    06:00 +27°C° 0.3 mm 4 m/s 757 mmHg 87%
    07:00 +29°C° 0 mm 4 m/s 758 mmHg 78%
    08:00 +31°C° 0 mm 3 m/s 758 mmHg 70%
    09:00 +33°C° 0 mm 3 m/s 758 mmHg 61%
    10:00 +33°C° 0.1 mm 3 m/s 758 mmHg 60%
    11:00 +34°C° 0.1 mm 4 m/s 758 mmHg 59%
    12:00 +34°C° 0.1 mm 4 m/s 757 mmHg 59%
    13:00 +34°C° 0.2 mm 4 m/s 757 mmHg 60%
    14:00 +34°C° 0.2 mm 4 m/s 756 mmHg 61%
    15:00 +33°C° 0.2 mm 4 m/s 755 mmHg 62%
    16:00 +32°C° 0.1 mm 4 m/s 755 mmHg 66%
    17:00 +30°C° 0.1 mm 4 m/s 756 mmHg 71%
    18:00 +29°C° 0.1 mm 5 m/s 756 mmHg 75%
    19:00 +29°C° 0 mm 5 m/s 756 mmHg 76%
    20:00 +29°C° 0 mm 5 m/s 757 mmHg 78%
    21:00 +29°C° 0 mm 5 m/s 757 mmHg 79%
    22:00 +29°C° 0 mm 5 m/s 757 mmHg 80%
    23:00 +28°C° 0 mm 5 m/s 757 mmHg 81%

    11 Décembre, Mercredi

    Heure Température Précipitation Vent Pression Humidité
    00:00 +28°C° 0 mm 5 m/s 757 mmHg 81%
    01:00 +28°C° 0 mm 4 m/s 757 mmHg 83%
    02:00 +28°C° 0 mm 3 m/s 756 mmHg 84%
    03:00 +27°C° 0 mm 2 m/s 756 mmHg 85%
    04:00 +27°C° 0 mm 2 m/s 756 mmHg 85%
    05:00 +27°C° 0 mm 3 m/s 757 mmHg 86%
    06:00 +27°C° 0 mm 3 m/s 757 mmHg 86%
    07:00 +29°C° 0.1 mm 3 m/s 758 mmHg 78%
    08:00 +30°C° 0.1 mm 3 m/s 758 mmHg 71%
    09:00 +33°C° 0.1 mm 3 m/s 759 mmHg 63%
    10:00 +33°C° 0 mm 3 m/s 758 mmHg 62%
    11:00 +33°C° 0 mm 3 m/s 758 mmHg 62%
    12:00 +34°C° 0 mm 3 m/s 757 mmHg 61%
    13:00 +33°C° 0.1 mm 3 m/s 757 mmHg 61%
    14:00 +33°C° 0.1 mm 3 m/s 756 mmHg 62%
    15:00 +33°C° 0.1 mm 4 m/s 755 mmHg 62%
    16:00 +32°C° 0 mm 4 m/s 755 mmHg 67%
    17:00 +30°C° 0 mm 4 m/s 755 mmHg 72%
    18:00 +29°C° 0 mm 4 m/s 755 mmHg 77%
    19:00 +29°C° 0 mm 4 m/s 756 mmHg 78%
    20:00 +29°C° 0 mm 4 m/s 757 mmHg 79%
    21:00 +28°C° 0 mm 4 m/s 757 mmHg 79%
    22:00 +28°C° 0 mm 4 m/s 757 mmHg 80%
    23:00 +28°C° 0 mm 4 m/s 757 mmHg 80%

    12 Décembre, Jeudi

    Heure Température Précipitation Vent Pression Humidité
    00:00 +28°C° 0 mm 4 m/s 757 mmHg 81%
    01:00 +28°C° 0.1 mm 3 m/s 756 mmHg 82%
    02:00 +28°C° 0.1 mm 3 m/s 756 mmHg 83%
    03:00 +27°C° 0.1 mm 3 m/s 756 mmHg 85%
    04:00 +27°C° 0.2 mm 3 m/s 756 mmHg 86%
    05:00 +27°C° 0.2 mm 2 m/s 756 mmHg 87%
    06:00 +26°C° 0.2 mm 2 m/s 757 mmHg 88%
    07:00 +28°C° 0 mm 2 m/s 757 mmHg 80%
    08:00 +30°C° 0 mm 2 m/s 758 mmHg 72%
    09:00 +32°C° 0 mm 2 m/s 758 mmHg 64%
    10:00 +32°C° 0 mm 2 m/s 758 mmHg 62%
    11:00 +34°C° 0 mm 2 m/s 757 mmHg 60%
    12:00 +34°C° 0 mm 3 m/s 757 mmHg 58%
    13:00 +34°C° 0.1 mm 3 m/s 756 mmHg 59%
    14:00 +33°C° 0.1 mm 3 m/s 756 mmHg 60%
    15:00 +33°C° 0.1 mm 3 m/s 755 mmHg 62%
    16:00 +32°C° 0 mm 4 m/s 755 mmHg 66%
    17:00 +30°C° 0 mm 4 m/s 755 mmHg 70%
    18:00 +29°C° 0 mm 4 m/s 756 mmHg 75%
    19:00 +29°C° 0 mm 4 m/s 756 mmHg 76%
    20:00 +29°C° 0 mm 4 m/s 757 mmHg 78%
    21:00 +29°C° 0 mm 4 m/s 758 mmHg 79%
    22:00 +29°C° 0 mm 4 m/s 757 mmHg 81%
    23:00 +28°C° 0 mm 4 m/s 757 mmHg 82%
    Voir plus